• en France
  • Liste des pays
  • À 7 jours
  • Température de l'eau
  • Carte satellitaire
  • Carte météo
  • Widgets météo
  • user-avatar
    Se connecter

    Météo par heure à Győr

    Ce jour, 21 Octobre, Dimanche

    Heure Température Précipitation Vent Pression Humidité
    00:00 +9°C° 0 mm 5 m/s 758 mmHg 70%
    01:00 +9°C° 0 mm 5 m/s 758 mmHg 70%
    02:00 +8°C° 0 mm 5 m/s 758 mmHg 70%
    03:00 +7°C° 0 mm 6 m/s 758 mmHg 69%
    04:00 +7°C° 0 mm 6 m/s 758 mmHg 69%
    05:00 +7°C° 0 mm 6 m/s 758 mmHg 69%
    06:00 +5°C° 0 mm 6 m/s 758 mmHg 69%
    07:00 +5°C° 0 mm 6 m/s 758 mmHg 69%
    08:00 +8°C° 0.1 mm 6 m/s 758 mmHg 66%
    09:00 +9°C° 0.1 mm 6 m/s 758 mmHg 62%
    10:00 +10°C° 0.1 mm 6 m/s 758 mmHg 58%
    11:00 +11°C° 0 mm 6 m/s 758 mmHg 55%
    12:00 +13°C° 0 mm 5 m/s 758 mmHg 51%
    13:00 +14°C° 0 mm 5 m/s 758 mmHg 48%
    14:00 +13°C° 0 mm 5 m/s 758 mmHg 50%
    15:00 +13°C° 0 mm 5 m/s 758 mmHg 52%
    16:00 +13°C° 0 mm 5 m/s 758 mmHg 54%
    17:00 +12°C° 0 mm 4 m/s 758 mmHg 59%
    18:00 +11°C° 0 mm 4 m/s 758 mmHg 64%
    19:00 +10°C° 0 mm 3 m/s 759 mmHg 69%
    20:00 +10°C° 0 mm 3 m/s 759 mmHg 71%
    21:00 +10°C° 0 mm 3 m/s 759 mmHg 73%
    22:00 +9°C° 0 mm 3 m/s 759 mmHg 75%
    23:00 +9°C° 0 mm 3 m/s 759 mmHg 77%

    Demain, 22 Octobre, Lundi

    Heure Température Précipitation Vent Pression Humidité
    00:00 +9°C° 0 mm 3 m/s 759 mmHg 78%
    01:00 +8°C° 0 mm 2 m/s 759 mmHg 80%
    02:00 +8°C° 0 mm 2 m/s 759 mmHg 82%
    03:00 +7°C° 0 mm 2 m/s 759 mmHg 84%
    04:00 +7°C° 0 mm 2 m/s 759 mmHg 86%
    05:00 +7°C° 0 mm 2 m/s 759 mmHg 85%
    06:00 +7°C° 0 mm 2 m/s 759 mmHg 84%
    07:00 +7°C° 0 mm 2 m/s 759 mmHg 83%
    08:00 +9°C° 0 mm 2 m/s 759 mmHg 76%
    09:00 +10°C° 0 mm 2 m/s 759 mmHg 68%
    10:00 +13°C° 0 mm 2 m/s 759 mmHg 61%
    11:00 +14°C° 0 mm 2 m/s 758 mmHg 56%
    12:00 +16°C° 0 mm 3 m/s 758 mmHg 52%
    13:00 +17°C° 0 mm 3 m/s 757 mmHg 48%
    14:00 +17°C° 0 mm 3 m/s 757 mmHg 49%
    15:00 +16°C° 0 mm 2 m/s 757 mmHg 50%
    16:00 +16°C° 0 mm 2 m/s 757 mmHg 51%
    17:00 +15°C° 0 mm 2 m/s 757 mmHg 55%
    18:00 +13°C° 0 mm 2 m/s 757 mmHg 59%
    19:00 +12°C° 0 mm 2 m/s 758 mmHg 64%
    20:00 +10°C° 0 mm 3 m/s 758 mmHg 65%
    21:00 +10°C° 0 mm 3 m/s 758 mmHg 66%
    22:00 +10°C° 0 mm 3 m/s 759 mmHg 67%
    23:00 +9°C° 0 mm 3 m/s 758 mmHg 67%

    Après-demain, 23 Octobre, Mardi

    Heure Température Précipitation Vent Pression Humidité
    00:00 +8°C° 0 mm 4 m/s 758 mmHg 68%
    01:00 +8°C° 0 mm 4 m/s 758 mmHg 69%
    02:00 +8°C° 0 mm 4 m/s 758 mmHg 70%
    03:00 +8°C° 0 mm 5 m/s 758 mmHg 70%
    04:00 +8°C° 0 mm 5 m/s 758 mmHg 71%
    05:00 +8°C° 0 mm 5 m/s 758 mmHg 74%
    06:00 +8°C° 0 mm 5 m/s 758 mmHg 76%
    07:00 +9°C° 0 mm 5 m/s 758 mmHg 78%
    08:00 +10°C° 0 mm 5 m/s 758 mmHg 71%
    09:00 +12°C° 0 mm 5 m/s 758 mmHg 64%
    10:00 +13°C° 0 mm 6 m/s 758 mmHg 57%
    11:00 +13°C° 0 mm 6 m/s 757 mmHg 54%
    12:00 +14°C° 0 mm 6 m/s 757 mmHg 50%
    13:00 +14°C° 0 mm 7 m/s 756 mmHg 47%
    14:00 +14°C° 0 mm 6 m/s 756 mmHg 48%
    15:00 +14°C° 0 mm 5 m/s 755 mmHg 49%
    16:00 +14°C° 0 mm 5 m/s 754 mmHg 50%
    17:00 +13°C° 0 mm 5 m/s 754 mmHg 53%
    18:00 +12°C° 0 mm 5 m/s 754 mmHg 55%
    19:00 +12°C° 0 mm 5 m/s 753 mmHg 57%
    20:00 +12°C° 0 mm 5 m/s 753 mmHg 58%
    21:00 +12°C° 0 mm 5 m/s 753 mmHg 59%
    22:00 +11°C° 0 mm 6 m/s 752 mmHg 59%
    23:00 +11°C° 0.1 mm 6 m/s 752 mmHg 60%

    24 Octobre, Mercredi

    Heure Température Précipitation Vent Pression Humidité
    00:00 +11°C° 0.1 mm 6 m/s 751 mmHg 60%
    01:00 +11°C° 0.1 mm 7 m/s 750 mmHg 61%
    02:00 +11°C° 0 mm 7 m/s 750 mmHg 62%
    03:00 +11°C° 0 mm 7 m/s 749 mmHg 63%
    04:00 +11°C° 0 mm 7 m/s 748 mmHg 64%
    05:00 +11°C° 0 mm 8 m/s 748 mmHg 63%
    06:00 +11°C° 0 mm 8 m/s 747 mmHg 62%
    07:00 +12°C° 0 mm 9 m/s 747 mmHg 61%
    08:00 +12°C° 0.8 mm 9 m/s 747 mmHg 63%
    09:00 +12°C° 0.8 mm 9 m/s 747 mmHg 64%
    10:00 +12°C° 0.8 mm 10 m/s 748 mmHg 65%
    11:00 +12°C° 0.8 mm 9 m/s 748 mmHg 63%
    12:00 +11°C° 0.8 mm 9 m/s 748 mmHg 61%
    13:00 +11°C° 0.8 mm 8 m/s 748 mmHg 58%
    14:00 +11°C° 0.3 mm 8 m/s 748 mmHg 56%
    15:00 +11°C° 0.3 mm 7 m/s 748 mmHg 54%
    16:00 +10°C° 0.3 mm 7 m/s 748 mmHg 52%
    17:00 +9°C° 0.1 mm 7 m/s 749 mmHg 52%
    18:00 +8°C° 0.1 mm 7 m/s 750 mmHg 53%
    19:00 +7°C° 0.1 mm 6 m/s 751 mmHg 53%
    20:00 +7°C° 0 mm 6 m/s 751 mmHg 55%
    21:00 +5°C° 0 mm 6 m/s 752 mmHg 57%
    22:00 +6°C° 0 mm 5 m/s 753 mmHg 59%
    23:00 +6°C° 0 mm 5 m/s 753 mmHg 60%

    25 Octobre, Jeudi

    Heure Température Précipitation Vent Pression Humidité
    00:00 +5°C° 0 mm 5 m/s 754 mmHg 61%
    01:00 +5°C° 0 mm 5 m/s 754 mmHg 63%
    02:00 +5°C° 0 mm 5 m/s 754 mmHg 64%
    03:00 +5°C° 0 mm 5 m/s 754 mmHg 65%
    04:00 +5°C° 0 mm 5 m/s 754 mmHg 67%
    05:00 +5°C° 0 mm 5 m/s 754 mmHg 69%
    06:00 +5°C° 0 mm 4 m/s 754 mmHg 72%
    07:00 +5°C° 0 mm 4 m/s 754 mmHg 74%
    08:00 +6°C° 0 mm 4 m/s 754 mmHg 70%
    09:00 +8°C° 0 mm 5 m/s 754 mmHg 65%
    10:00 +9°C° 0 mm 6 m/s 754 mmHg 61%
    11:00 +10°C° 0 mm 6 m/s 754 mmHg 62%
    12:00 +10°C° 0 mm 5 m/s 753 mmHg 63%
    13:00 +12°C° 0 mm 5 m/s 753 mmHg 64%
    14:00 +12°C° 0 mm 5 m/s 752 mmHg 65%
    15:00 +12°C° 0 mm 4 m/s 752 mmHg 67%
    16:00 +12°C° 0 mm 4 m/s 752 mmHg 68%
    17:00 +12°C° 0 mm 4 m/s 752 mmHg 70%
    18:00 +12°C° 0 mm 4 m/s 751 mmHg 72%
    19:00 +12°C° 0 mm 4 m/s 751 mmHg 73%
    20:00 +12°C° 0 mm 4 m/s 751 mmHg 75%
    21:00 +11°C° 0 mm 4 m/s 751 mmHg 77%
    22:00 +11°C° 0 mm 4 m/s 751 mmHg 78%
    23:00 +11°C° 0 mm 4 m/s 751 mmHg 78%

    26 Octobre, Vendredi

    Heure Température Précipitation Vent Pression Humidité
    00:00 +11°C° 0 mm 4 m/s 751 mmHg 77%
    01:00 +11°C° 0 mm 4 m/s 751 mmHg 76%
    02:00 +11°C° 0 mm 4 m/s 751 mmHg 78%
    03:00 +11°C° 0 mm 4 m/s 751 mmHg 80%
    04:00 +10°C° 0 mm 3 m/s 751 mmHg 82%
    05:00 +10°C° 0 mm 3 m/s 751 mmHg 83%
    06:00 +10°C° 0 mm 3 m/s 751 mmHg 84%
    07:00 +10°C° 0 mm 2 m/s 751 mmHg 85%
    08:00 +12°C° 0 mm 2 m/s 751 mmHg 77%
    09:00 +13°C° 0 mm 3 m/s 750 mmHg 70%
    10:00 +14°C° 0 mm 3 m/s 750 mmHg 63%
    11:00 +16°C° 0 mm 3 m/s 750 mmHg 59%
    12:00 +17°C° 0 mm 3 m/s 749 mmHg 55%
    13:00 +18°C° 0 mm 3 m/s 748 mmHg 52%
    14:00 +18°C° 0 mm 3 m/s 748 mmHg 54%
    15:00 +17°C° 0 mm 3 m/s 747 mmHg 57%
    16:00 +17°C° 0 mm 3 m/s 747 mmHg 60%
    17:00 +16°C° 0 mm 3 m/s 746 mmHg 66%
    18:00 +14°C° 0 mm 3 m/s 746 mmHg 72%
    19:00 +13°C° 0 mm 3 m/s 746 mmHg 78%
    20:00 +13°C° 0 mm 3 m/s 746 mmHg 80%
    21:00 +13°C° 0 mm 3 m/s 745 mmHg 82%
    22:00 +12°C° 0 mm 3 m/s 745 mmHg 84%
    23:00 +12°C° 0 mm 3 m/s 745 mmHg 86%
    Voir plus